TimeMST,TemperatureF,Dew PointF,Humidity,Sea Level PressureIn,VisibilityMPH,Wind Direction,Wind SpeedMPH,Gust SpeedMPH,PrecipitationIn,Events,Conditions,WindDirDegrees,DateUTC
12:53 AM,15.1,12.0,88,30.08,10.0,SSE,3.5,-,0.00,,Overcast,160,2013-02-22 07:53:00
1:53 AM,15.1,12.0,88,30.06,10.0,SSE,4.6,-,N/A,,Overcast,160,2013-02-22 08:53:00
2:53 AM,15.1,12.0,88,30.05,10.0,South,4.6,-,N/A,,Overcast,180,2013-02-22 09:53:00
3:53 AM,15.1,12.0,88,30.04,8.0,SE,8.1,-,0.00,,Overcast,140,2013-02-22 10:53:00
4:53 AM,15.1,12.0,88,30.05,4.0,SSE,5.8,-,0.00,Snow,Light Snow,160,2013-02-22 11:53:00
5:53 AM,15.1,12.0,88,30.06,3.0,SSE,3.5,-,0.00,Snow,Light Snow,150,2013-02-22 12:53:00
6:53 AM,14.0,10.0,84,30.06,4.0,SSW,3.5,-,0.00,Snow,Light Snow,210,2013-02-22 13:53:00
7:53 AM,15.1,10.9,84,30.04,7.0,Calm,Calm,-,0.00,,Mostly Cloudy,0,2013-02-22 14:53:00
8:53 AM,18.0,14.0,84,30.04,9.0,SSE,3.5,-,N/A,,Clear,150,2013-02-22 15:53:00
9:53 AM,21.0,16.0,81,30.03,10.0,South,5.8,-,N/A,,Partly Cloudy,190,2013-02-22 16:53:00
10:53 AM,25.0,19.0,78,30.01,10.0,SW,5.8,-,N/A,,Partly Cloudy,220,2013-02-22 17:53:00
11:53 AM,28.9,21.9,75,29.98,10.0,SSW,8.1,-,N/A,,Clear,200,2013-02-22 18:53:00
12:53 PM,30.9,23.0,72,29.95,10.0,South,8.1,-,N/A,,Clear,190,2013-02-22 19:53:00
1:53 PM,34.0,24.1,67,29.91,10.0,Variable,6.9,-,N/A,,Clear,0,2013-02-22 20:53:00
2:53 PM,36.0,25.0,64,29.89,10.0,Variable,6.9,-,N/A,,Mostly Cloudy,0,2013-02-22 21:53:00
3:53 PM,37.0,24.1,59,29.88,10.0,SSE,5.8,-,N/A,,Scattered Clouds,150,2013-02-22 22:53:00
4:53 PM,34.0,25.0,70,29.88,10.0,SE,8.1,-,N/A,,Partly Cloudy,130,2013-02-22 23:53:00
5:53 PM,30.0,23.0,75,29.88,10.0,SSE,5.8,-,N/A,,Partly Cloudy,150,2013-02-23 00:53:00
6:53 PM,26.1,23.0,88,29.90,10.0,ESE,3.5,-,N/A,,Scattered Clouds,120,2013-02-23 01:53:00
7:53 PM,21.9,19.0,89,29.89,9.0,Calm,Calm,-,N/A,,Clear,0,2013-02-23 02:53:00
8:53 PM,21.0,18.0,88,29.88,8.0,Calm,Calm,-,N/A,,Clear,0,2013-02-23 03:53:00
9:53 PM,19.9,16.0,85,29.86,8.0,Calm,Calm,-,N/A,,Clear,0,2013-02-23 04:53:00
10:53 PM,17.1,12.9,84,29.84,3.0,Calm,Calm,-,N/A,,Clear,0,2013-02-23 05:53:00
11:53 PM,15.1,12.0,88,29.82,5.0,Calm,Calm,-,N/A,,Clear,0,2013-02-23 06:53:00